Regional Weather Roundup
Issued by NWS Charleston, WV

Home | Current Version | Previous Version | Text Only | Print | Product List | Glossary Off
Versions: 1 2 3 4 5 6 7 8 9 10 11 12 13 14 15 16 17 18 19 20 21 22 23 24 25 26 27 28 29 30 31 32 33 34 35 36 37 38 39 40 41 42 43 44 45 46 47 48 49 50

000
ASUS41 KRLX 281110
RWRRLX
West Virginia Regional Weather Roundup
National Weather Service Charleston WV
600 AM EST SAT FEB 28 2015

Note: "fair" indicates few or no clouds below 12,000 feet with no
significant weather and/or obstructions to visibility.

WVZ003-281200-
Northern Panhandle of West Virginia

CITY           SKY/WX    TMP DP  RH WIND       PRES   REMARKS
WHEELING       PTCLDY     5  -5  63 NE6       30.69S WCI  -6
$$

WVZ009-281200-
Northwest West Virginia

CITY           SKY/WX    TMP DP  RH WIND       PRES   REMARKS
PARKERSBURG    PTCLDY     7   2  80 CALM      30.73S
$$

WVZ006-281200-
Western West Virginia

CITY           SKY/WX    TMP DP  RH WIND       PRES   REMARKS
HUNTINGTON     MOCLDY    15   4  61 E5        30.69R WCI   8
$$

WVZ015-281200-
West Central West Virginia

CITY           SKY/WX    TMP DP  RH WIND       PRES   REMARKS
CHARLESTON     MOCLDY    15   5  64 NE3       30.67S
$$

WVZ022-031-281200-
North Central West Virginia

CITY           SKY/WX    TMP DP  RH WIND       PRES   REMARKS
CLARKSBURG     PTCLDY     8   3  80 CALM      30.67S
MORGANTOWN     PTCLDY     6  -2  69 CALM      30.69S
$$

WVZ025-035-042-045-281200-
Southern West Virginia

CITY           SKY/WX    TMP DP  RH WIND       PRES   REMARKS
BECKLEY        PTCLDY     7   0  73 CALM      30.53S
LOGAN          CLOUDY    16   7  67 CALM      30.57R
BLUEFIELD      PTCLDY    10   2  69 E5        30.50R WCI   2
LEWISBURG      PTCLDY     6   0  76 NE3       30.58R
$$

WVZ047-281200-
Northern Mountains of West Virginia

CITY           SKY/WX    TMP DP  RH WIND       PRES   REMARKS
ELKINS         PTCLDY    -4  -7  87 CALM      30.62R
$$

WVZ052-281200-
Eastern Panhandle of West Virginia

CITY           SKY/WX    TMP DP  RH WIND       PRES   REMARKS
MARTINSBURG    CLEAR     12   1  61 NE3       30.76R
PETERSBURG     PTCLDY    10   3  72 CALM      30.73R
$$


USA.gov is the U.S. government's official web portal to all federal, state and local government web resources and services.